TimeMST,TemperatureF,Dew PointF,Humidity,Sea Level PressureIn,VisibilityMPH,Wind Direction,Wind SpeedMPH,Gust SpeedMPH,PrecipitationIn,Events,Conditions,WindDirDegrees,DateUTC
12:15 AM,21.2,8.6,58,29.79,-9999.0,North,6.9,-,N/A,,Overcast,350,2012-11-11 07:15:00
12:35 AM,19.4,8.6,63,29.79,-9999.0,WSW,6.9,-,N/A,,Overcast,240,2012-11-11 07:35:00
12:55 AM,19.4,12.2,74,29.79,-9999.0,Calm,Calm,-,N/A,,Overcast,0,2012-11-11 07:55:00
1:15 AM,19.4,10.4,68,29.80,-9999.0,Calm,Calm,-,N/A,,Overcast,0,2012-11-11 08:15:00
1:35 AM,19.4,12.2,74,29.81,-9999.0,Calm,Calm,-,N/A,,Overcast,0,2012-11-11 08:35:00
1:55 AM,19.4,8.6,63,29.82,-9999.0,NNW,5.8,-,N/A,,Overcast,330,2012-11-11 08:55:00
2:15 AM,19.4,8.6,63,29.83,-9999.0,NW,4.6,-,N/A,,Overcast,310,2012-11-11 09:15:00
2:34 AM,19.4,8.6,63,29.83,-9999.0,NW,4.6,-,N/A,,Overcast,320,2012-11-11 09:34:00
2:55 AM,17.6,8.6,68,29.84,-9999.0,SW,4.6,-,N/A,,Overcast,220,2012-11-11 09:55:00
3:14 AM,17.6,6.8,63,29.84,-9999.0,Calm,Calm,-,N/A,,Overcast,0,2012-11-11 10:14:00
3:35 AM,17.6,6.8,63,29.85,-9999.0,Calm,Calm,-,N/A,,Overcast,0,2012-11-11 10:35:00
3:55 AM,17.6,8.6,68,29.86,-9999.0,Calm,Calm,-,N/A,,Overcast,0,2012-11-11 10:55:00
4:35 AM,14.0,6.8,73,29.87,-9999.0,Calm,Calm,-,N/A,,Scattered Clouds,0,2012-11-11 11:35:00
4:55 AM,14.0,5.0,67,29.87,-9999.0,Calm,Calm,-,N/A,,Scattered Clouds,0,2012-11-11 11:55:00
5:15 AM,10.4,3.2,73,29.88,-9999.0,Calm,Calm,-,N/A,,Unknown,0,2012-11-11 12:15:00
5:35 AM,10.4,5.0,79,29.88,-9999.0,Calm,Calm,-,N/A,,Clear,0,2012-11-11 12:35:00
5:55 AM,10.4,3.2,73,29.89,-9999.0,Calm,Calm,-,N/A,,Clear,0,2012-11-11 12:55:00
6:35 AM,10.4,3.2,73,29.91,-9999.0,Calm,Calm,-,N/A,,Mostly Cloudy,0,2012-11-11 13:35:00
6:55 AM,10.4,5.0,79,29.92,-9999.0,Calm,Calm,-,N/A,,Scattered Clouds,0,2012-11-11 13:55:00
7:15 AM,10.4,3.2,73,29.93,-9999.0,Calm,Calm,-,N/A,,Clear,0,2012-11-11 14:15:00
7:35 AM,10.4,3.2,73,29.94,-9999.0,Calm,Calm,-,N/A,,Clear,0,2012-11-11 14:35:00
8:15 AM,10.4,3.2,73,29.96,-9999.0,ESE,3.5,-,N/A,,Mostly Cloudy,120,2012-11-11 15:15:00
8:35 AM,12.2,5.0,73,29.96,-9999.0,East,4.6,-,N/A,,Scattered Clouds,100,2012-11-11 15:35:00
8:55 AM,17.6,5.0,58,29.96,-9999.0,Calm,Calm,-,N/A,,Overcast,0,2012-11-11 15:55:00
9:15 AM,19.4,6.8,58,29.96,-9999.0,SW,4.6,-,N/A,,Overcast,230,2012-11-11 16:15:00
9:35 AM,17.6,5.0,58,29.96,-9999.0,West,6.9,-,N/A,,Scattered Clouds,270,2012-11-11 16:35:00
10:15 AM,21.2,8.6,58,29.99,-9999.0,West,13.8,18.4,N/A,,Mostly Cloudy,270,2012-11-11 17:15:00
10:35 AM,21.2,5.0,50,30.00,-9999.0,West,15.0,23.0,N/A,,Mostly Cloudy,280,2012-11-11 17:35:00
11:15 AM,23.0,3.2,43,30.00,-9999.0,NW,12.7,18.4,N/A,,Overcast,320,2012-11-11 18:15:00
11:34 AM,19.4,1.4,46,30.00,-9999.0,WNW,13.8,25.3,N/A,,Overcast,290,2012-11-11 18:34:00
11:55 AM,23.0,3.2,43,29.99,-9999.0,West,15.0,20.7,N/A,,Scattered Clouds,280,2012-11-11 18:55:00
12:15 PM,19.4,3.2,49,30.00,-9999.0,WNW,11.5,19.6,N/A,,Mostly Cloudy,300,2012-11-11 19:15:00
12:35 PM,23.0,1.4,39,30.00,-9999.0,WNW,10.4,19.6,N/A,,Mostly Cloudy,290,2012-11-11 19:35:00
12:55 PM,21.2,6.8,54,30.00,-9999.0,NNW,10.4,18.4,N/A,,Mostly Cloudy,330,2012-11-11 19:55:00
1:15 PM,21.2,1.4,42,30.00,-9999.0,NW,13.8,19.6,N/A,,Overcast,310,2012-11-11 20:15:00
1:35 PM,23.0,1.4,39,30.00,-9999.0,WNW,12.7,23.0,N/A,,Mostly Cloudy,290,2012-11-11 20:35:00
1:55 PM,23.0,-0.4,36,30.01,-9999.0,WNW,13.8,21.9,N/A,,Scattered Clouds,290,2012-11-11 20:55:00
2:15 PM,21.2,-2.2,36,30.01,-9999.0,WNW,16.1,25.3,N/A,,Clear,290,2012-11-11 21:15:00
2:35 PM,21.2,1.4,42,30.02,-9999.0,NW,15.0,25.3,N/A,,Scattered Clouds,310,2012-11-11 21:35:00
2:55 PM,23.0,1.4,39,30.03,-9999.0,NW,15.0,24.2,N/A,,Scattered Clouds,320,2012-11-11 21:55:00
3:15 PM,23.0,-0.4,36,30.05,-9999.0,NW,9.2,20.7,N/A,,Scattered Clouds,310,2012-11-11 22:15:00
3:35 PM,21.2,-4.0,33,30.06,-9999.0,West,17.3,28.8,N/A,,Scattered Clouds,280,2012-11-11 22:35:00
3:55 PM,21.2,-4.0,33,30.06,-9999.0,WNW,9.2,-,N/A,,Clear,300,2012-11-11 22:55:00
4:15 PM,21.2,-0.4,39,30.06,-9999.0,NW,9.2,-,N/A,,Scattered Clouds,310,2012-11-11 23:15:00
4:35 PM,19.4,3.2,49,30.08,-9999.0,NW,6.9,-,N/A,,Scattered Clouds,320,2012-11-11 23:35:00
4:55 PM,17.6,1.4,49,30.08,-9999.0,NNW,5.8,-,N/A,,Clear,340,2012-11-11 23:55:00
5:15 PM,17.6,1.4,49,30.10,-9999.0,WNW,5.8,-,N/A,,Clear,300,2012-11-12 00:15:00
5:34 PM,17.6,5.0,58,30.11,-9999.0,WNW,8.1,-,N/A,,Mostly Cloudy,290,2012-11-12 00:34:00
5:54 PM,17.6,3.2,53,30.12,-9999.0,WNW,3.5,-,N/A,,Scattered Clouds,290,2012-11-12 00:54:00
6:15 PM,17.6,1.4,49,30.13,-9999.0,West,6.9,-,N/A,,Clear,280,2012-11-12 01:15:00
6:35 PM,17.6,5.0,58,30.14,-9999.0,West,10.4,-,N/A,,Mostly Cloudy,260,2012-11-12 01:35:00
6:55 PM,17.6,5.0,58,30.16,-9999.0,WNW,6.9,-,N/A,,Overcast,290,2012-11-12 01:55:00
7:15 PM,17.6,8.6,68,30.16,-9999.0,NW,5.8,-,N/A,,Overcast,320,2012-11-12 02:15:00
7:35 PM,17.6,10.4,73,30.19,-9999.0,WNW,3.5,-,N/A,Snow,Light Snow,300,2012-11-12 02:35:00
7:55 PM,17.6,10.4,73,30.19,-9999.0,West,4.6,-,N/A,Snow,Light Snow,270,2012-11-12 02:55:00
8:15 PM,17.6,10.4,73,30.21,-9999.0,WNW,3.5,-,N/A,Snow,Light Snow,290,2012-11-12 03:15:00
8:35 PM,17.6,8.6,68,30.22,-9999.0,NNW,6.9,-,N/A,,Overcast,330,2012-11-12 03:35:00
8:55 PM,17.6,5.0,58,30.24,-9999.0,NNW,6.9,-,N/A,,Overcast,330,2012-11-12 03:55:00
9:15 PM,14.0,5.0,67,30.26,-9999.0,NNW,6.9,-,N/A,,Overcast,330,2012-11-12 04:15:00
9:35 PM,14.0,5.0,67,30.26,-9999.0,NW,3.5,-,N/A,,Overcast,310,2012-11-12 04:35:00
9:55 PM,14.0,5.0,67,30.27,-9999.0,Calm,Calm,-,N/A,,Overcast,0,2012-11-12 04:55:00
10:15 PM,14.0,3.2,62,30.28,-9999.0,West,4.6,-,N/A,,Unknown,280,2012-11-12 05:15:00
10:34 PM,14.0,3.2,62,30.29,-9999.0,NW,3.5,-,N/A,,Unknown,310,2012-11-12 05:34:00
10:55 PM,10.4,1.4,67,30.29,-9999.0,NW,4.6,-,N/A,,Overcast,320,2012-11-12 05:55:00
11:15 PM,12.2,-0.4,57,30.31,-9999.0,NW,5.8,-,N/A,,Overcast,310,2012-11-12 06:15:00
11:35 PM,14.0,1.4,57,30.31,-9999.0,WNW,9.2,-,N/A,,Overcast,290,2012-11-12 06:35:00
11:55 PM,12.2,1.4,62,30.32,-9999.0,SW,5.8,-,N/A,,Overcast,220,2012-11-12 06:55:00